Regional Weather Roundup
Issued by NWS

Home | Current Version | Previous Version | Text Only | Print | Product List | Glossary Off
Versions: 1 2 3 4 5 6 7 8 9 10 11 12 13 14 15 16 17 18 19 20 21 22 23 24 25 26 27

000
ASUS45 KBOU 100210
RWRCO

WEATHER ROUNDUP FOR COLORADO
NATIONAL WEATHER SERVICE DENVER/BOULDER CO
700 PM MST SAT DEC 09 2017

NOTE: "FAIR" INDICATES FEW OR NO CLOUDS BELOW 12000 FEET WITH NO
SIGNIFICANT WEATHER AND/OR OBSTRUCTIONS TO VISIBILITY.

COZ001>005-013-030-031-100300-
...NORTHWEST COLORADO...

CITY           SKY/WX    TMP DP  RH WIND       PRES   REMARKS
CRAIG          FAIR      16   9  74 CALM      30.54R
HAYDEN         FAIR      22  14  71 E13       30.55R WCI  10
MEEKER         FAIR      23   5  46 CALM      30.52R
RABBIT EARS PA FAIR      19  10  68 W9        30.54R WCI   9
STEAMBOAT SPGS FAIR      24  15  68 CALM      30.54R
WALDEN         FAIR      16   3  57 S7        30.53R WCI   6
$$

COZ006>008-011-100300-
...WEST CENTRAL VALLEYS...

CITY           SKY/WX    TMP DP  RH WIND       PRES   REMARKS
GRAND JUNCTION FAIR      30   8  39 NE5       30.50R WCI  25
MONTROSE       FAIR      24   5  44 SE8       30.54R WCI  15
EAGLE          FAIR      21  13  71 E5        30.59R WCI  15
RIFLE          FAIR      25   7  46 S3        30.53R
DELTA          FAIR      33   6  32 CALM      30.53R
NUCLA          FAIR      32   0  25 E9        30.54R WCI  24
$$

COZ017>023-064>068-100300-
...SOUTHWEST COLORADO...

CITY           SKY/WX    TMP DP  RH WIND       PRES   REMARKS
DURANGO        FAIR      30   6  36 N10       30.46R WCI  21
CORTEZ         FAIR      22   2  42 E12       30.48R WCI  10
PAGOSA SPRINGS FAIR      26   1  34 CALM      30.49R
TELLURIDE      FAIR      33 -13  13 CALM      30.56S
WOLF CREEK PAS FAIR      27 -18  13 NW6       30.62S WCI  20
$$

COZ009-010-012-014-032>034-037-058>063-100300-
...CENTRAL COLORADO...

CITY           SKY/WX    TMP DP  RH WIND       PRES   REMARKS
ASPEN          FAIR      25   6  44 SW10      30.54R WCI  15
BUENA VISTA    FAIR      30  -5  21 NW13      30.48R WCI  20
COPPER MTN     NOT AVBL
BERTHOUD PASS  FAIR      14   3  62 NW17G25   30.54R WCI  -3
COTTONWOOD PAS FAIR      37 -17   9 W14G22    30.51R
GUNNISON       FAIR      22   3  44 NE3       30.53R
KREMMLING      FAIR      10   7  85 CALM      30.59S
LEADVILLE      FAIR      20  -1  40 NE8       30.54R WCI  10
MONARCH PASS   FAIR      23  -6  28 W15       30.66R WCI  10
SALIDA         FAIR      37  -5  16 W6        30.55R
SUNLIGHT       FAIR      27  -8  22 NW5       30.62R WCI  21
WILKERSON PASS FAIR      27 -18  13 N9G20     30.54S WCI  17
$$

COZ069>075-100300-
...SAN LUIS VALLEY/SANGRE DE CRISTO MOUNTAINS...

CITY           SKY/WX    TMP DP  RH WIND       PRES   REMARKS
ALAMOSA        FAIR      24  -3  30 W5        30.47R WCI  18
DEL NORTE      FAIR      25  -4  28 W9        30.50R WCI  16
LA VETA PASS   FAIR      28  -6  22 SW21G31     N/A  WCI  15
SAGUACHE       FAIR      34  -2  21 N10       30.49R WCI  26
$$

COZ035-036-038>040-100300-
...NORTHERN COLORADO FRONT RANGE...

CITY           SKY/WX    TMP DP  RH WIND       PRES   REMARKS
DENVER INTL AP FAIR      38   0  20 SW9       30.38R
DMNS CITY PARK NOT AVBL
AURORA         PTCLDY    37   2  22 S7        30.39R
FRONT RANGE AP PTCLDY    37   1  22 S7        30.39R
ERIE MUNI ARPT FAIR      39   0  19 CALM      30.43R
BOULDER MUN AP FAIR      46   1  15 SW6       30.37R
CENTENNIAL     FAIR      37   4  25 SW3       30.39R
BROOMFIELD     PTCLDY    45   0  15 W13       30.38R
FORT COLLINS   FAIR      43   5  20 CALM      30.38R
LONGMONT       FAIR      35   7  30 W6        30.39R WCI  30
$$

COZ041-046-047-076>085-087-088-100300-
...PIKES PEAK/PALMER DIVIDE AND SOUTHERN FOOTHILLS...

CITY           SKY/WX    TMP DP  RH WIND       PRES   REMARKS
COLO. SPRINGS  FAIR      35  -2  20 N7        30.41R WCI  29
A. F. ACADEMY  FAIR      26  -4  26 N10       30.41R WCI  16
SCHRIEVER AFB  FAIR      36  -5  17 N7        30.41R
CHEYENNE MTN   FAIR      41  -5  14 NW5       30.37R
ELLICOTT         N/A    N/A N/A N/A NE3       30.39R
FALCON         FAIR      27  -4  26 NW8       30.42R WCI  18
FORT CARSON    FAIR      41  -2  16 W9        30.38R
LIMON          FAIR      35   1  23 W9        30.37R WCI  28
MONUMENT HILL  FAIR      28   3  34 SW7       30.43R WCI  21
CANON CITY     FAIR      39   1  20 N7        30.38R
WALSENBURG     FAIR      46  -2  13 W10       30.36R
TRINIDAD       FAIR      30   2  30 W9        30.37R WCI  22
$$

COZ042>045-048>051-090-091-100300-
...NORTHEAST COLORADO...

CITY           SKY/WX    TMP DP  RH WIND       PRES   REMARKS
GREELEY ARPT   FAIR      32   4  30 N9        30.37R WCI  24
AKRON          FAIR      38   4  24 NW12      30.33R
BURLINGTON     FAIR      32   5  32 NW13      30.32R WCI  22
WRAY           FAIR      37   5  25 W10       30.29S
YUMA           FAIR      32   5  32 W9        30.31R WCI  24
STERLING       FAIR      41   9  26 NW17      30.30S
HOLYOKE        FAIR      45   9  23 W14G20    30.28R
FORT MORGAN    FAIR      43   1  17 NW17      30.35R
$$

COZ086-089-092>099-100300-
...SOUTHEAST COLORADO...

CITY           SKY/WX    TMP DP  RH WIND       PRES   REMARKS
PUEBLO         FAIR      33  -1  23 CALM      30.35R
LA JUNTA       FAIR      44   1  16 NE5       30.34R
LAMAR          FAIR      29   2  31 S10       30.31R WCI  20
SPRINGFIELD      N/A     24   3  40 W5        30.34R WCI  18
$$




USA.gov is the U.S. government's official web portal to all federal, state and local government web resources and services.